| time (UTC) | temp C | wind direction | speed KPH | gust KPH | rain 1hr cm | rain 24hr cm | rain mn cm | humidity % | barometer mb |
| 20260903184322 | 21 | 290 | 1.6 | 9.7 | 0.00 | 0.00 | 0.00 | 44 | 1013.0 |
| 20260903184111 | 21 | 280 | 0.0 | 8.0 | 0.00 | 0.00 | 0.00 | 45 | 1013.1 |
| 20260903183906 | 21 | 279 | 0.0 | 8.0 | 0.00 | 0.00 | 0.00 | 45 | 1013.1 |
| 20260903183655 | 21 | 46 | 0.0 | 4.8 | 0.00 | 0.00 | 0.00 | 47 | 1013.1 |
| 20260903183258 | 20 | 211 | 0.0 | 1.6 | 0.00 | 0.00 | 0.00 | 49 | 1013.2 |
| 20260903183045 | 20 | 211 | 1.6 | 0.0 | 0.00 | 0.00 | 0.00 | 49 | 1013.2 |
| 20260903182833 | 20 | 211 | 1.6 | 9.7 | 0.00 | 0.00 | 0.00 | 50 | 1013.2 |
| 20260903182628 | 20 | 211 | 1.6 | 9.7 | 0.00 | 0.00 | 0.00 | 49 | 1013.2 |
| 20260903182421 | 20 | 210 | 1.6 | 9.7 | 0.00 | 0.00 | 0.00 | 49 | 1013.3 |
| 20260903182219 | 19 | 208 | 0.0 | 9.7 | 0.00 | 0.00 | 0.00 | 49 | 1013.3 |
| 20260903182010 | 19 | 214 | 0.0 | 6.4 | 0.00 | 0.00 | 0.00 | 49 | 1013.3 |
| 20260903181757 | 19 | 185 | 0.0 | 4.8 | 0.00 | 0.00 | 0.00 | 50 | 1013.2 |
| 20260903181547 | 19 | 213 | 0.0 | 1.6 | 0.00 | 0.00 | 0.00 | 50 | 1013.2 |
| 20260903181342 | 19 | 213 | 0.0 | 8.0 | 0.00 | 0.00 | 0.00 | 49 | 1013.4 |
| 20260903181133 | 19 | 213 | 0.0 | 8.0 | 0.00 | 0.00 | 0.00 | 50 | 1013.3 |
| 20260903180929 | 19 | 213 | 0.0 | 8.0 | 0.00 | 0.00 | 0.00 | 50 | 1013.3 |
| 20260903180722 | 18 | 213 | 1.6 | 8.0 | 0.00 | 0.00 | 0.00 | 51 | 1013.4 |
| 20260903180329 | 18 | 214 | 0.0 | 8.0 | 0.00 | 0.00 | 0.00 | 51 | 1013.3 |
| 20260903180126 | 18 | 215 | 0.0 | 8.0 | 0.00 | 0.00 | 0.00 | 52 | 1013.3 |
| 20260903175924 | 18 | 213 | 0.0 | 3.2 | 0.00 | 0.00 | 0.00 | 52 | 1013.3 |
| 20260903175721 | 18 | 213 | 0.0 | 3.2 | 0.00 | 0.00 | 0.00 | 53 | 1013.3 |
| 20260903175517 | 18 | 213 | 0.0 | 3.2 | 0.00 | 0.00 | 0.00 | 53 | 1013.3 |
| 20260903175124 | 18 | 213 | 0.0 | 0.0 | 0.00 | 0.00 | 0.00 | 52 | 1013.4 |
| 20260903174915 | 18 | 213 | 0.0 | 4.8 | 0.00 | 0.00 | 0.00 | 52 | 1013.4 |
| 20260903174521 | 18 | 217 | 0.0 | 6.4 | 0.00 | 0.00 | 0.00 | 53 | 1013.4 |
| 20260903174134 | 17 | 211 | 0.0 | 6.4 | 0.00 | 0.00 | 0.00 | 54 | 1013.4 |
| 20260903173926 | 17 | 211 | 0.0 | 6.4 | 0.00 | 0.00 | 0.00 | 54 | 1013.5 |
| 20260903173718 | 17 | 163 | 0.0 | 6.4 | 0.00 | 0.00 | 0.00 | 55 | 1013.4 |
| 20260903173508 | 17 | 158 | 0.0 | 6.4 | 0.00 | 0.00 | 0.00 | 55 | 1013.5 |
| 20260903173301 | 17 | 157 | 0.0 | 6.4 | 0.00 | 0.00 | 0.00 | 55 | 1013.5 |
| 20260903173054 | 17 | 157 | 0.0 | 6.4 | 0.00 | 0.00 | 0.00 | 55 | 1013.5 |
| 20260903172842 | 17 | 157 | 0.0 | 6.4 | 0.00 | 0.00 | 0.00 | 55 | 1013.5 |
| 20260903172633 | 17 | 182 | 0.0 | 3.2 | 0.00 | 0.00 | 0.00 | 55 | 1013.5 |
| 20260903172426 | 16 | 182 | 0.0 | 1.6 | 0.00 | 0.00 | 0.00 | 55 | 1013.5 |
| 20260903172216 | 16 | 182 | 0.0 | 0.0 | 0.00 | 0.00 | 0.00 | 56 | 1013.6 |
| 20260903171826 | 16 | 182 | 0.0 | 4.8 | 0.00 | 0.00 | 0.00 | 56 | 1013.6 |
| 20260903171623 | 16 | 182 | 0.0 | 4.8 | 0.00 | 0.00 | 0.00 | 57 | 1013.7 |
| 20260903171413 | 16 | 182 | 0.0 | 4.8 | 0.00 | 0.00 | 0.00 | 59 | 1013.7 |
| 20260903171202 | 16 | 182 | 0.0 | 3.2 | 0.00 | 0.00 | 0.00 | 59 | 1013.7 |
| 20260903170951 | 16 | 178 | 0.0 | 3.2 | 0.00 | 0.00 | 0.00 | 60 | 1013.7 |
| 20260903170738 | 15 | 178 | 0.0 | 0.0 | 0.00 | 0.00 | 0.00 | 61 | 1013.7 |
| 20260903170535 | 15 | 178 | 0.0 | 6.4 | 0.00 | 0.00 | 0.00 | 60 | 1013.8 |
| 20260903170331 | 15 | 167 | 0.0 | 6.4 | 0.00 | 0.00 | 0.00 | 61 | 1013.7 |
| 20260903170127 | 15 | 150 | 0.0 | 6.4 | 0.00 | 0.00 | 0.00 | 62 | 1013.7 |
| 20260903165915 | 15 | 215 | 0.0 | 4.8 | 0.00 | 0.00 | 0.00 | 62 | 1013.8 |
| 20260903165708 | 15 | 244 | 0.0 | 4.8 | 0.00 | 0.00 | 0.00 | 62 | 1013.8 |
| 20260903165503 | 14 | 244 | 0.0 | 4.8 | 0.00 | 0.00 | 0.00 | 63 | 1013.8 |
| 20260903165252 | 14 | 204 | 0.0 | 0.0 | 0.00 | 0.00 | 0.00 | 64 | 1013.9 |
| 20260903165045 | 14 | 204 | 0.0 | 0.0 | 0.00 | 0.00 | 0.00 | 64 | 1013.9 |
| 20260903164840 | 13 | 204 | 0.0 | 0.0 | 0.00 | 0.00 | 0.00 | 65 | 1013.9 |
| 20260903164627 | 13 | 204 | 0.0 | 1.6 | 0.00 | 0.00 | 0.00 | 67 | 1013.9 |
| 20260903164421 | 13 | 204 | 0.0 | 1.6 | 0.00 | 0.00 | 0.00 | 68 | 1013.9 |
| 20260903164212 | 13 | 204 | 0.0 | 1.6 | 0.00 | 0.00 | 0.00 | 70 | 1013.9 |
| 20260903163820 | 12 | 205 | 0.0 | 0.0 | 0.00 | 0.00 | 0.00 | 70 | 1013.9 |
| 20260903163240 | 12 | 205 | 0.0 | 6.4 | 0.00 | 0.00 | 0.00 | 74 | 1013.9 |
| 20260903163032 | 12 | 234 | 0.0 | 1.6 | 0.00 | 0.00 | 0.00 | 75 | 1013.9 |
| 20260903162831 | 12 | 248 | 0.0 | 0.0 | 0.00 | 0.00 | 0.00 | 76 | 1013.9 |
| 20260903162620 | 11 | 248 | 0.0 | 1.6 | 0.00 | 0.00 | 0.00 | 77 | 1013.9 |
| 20260903162408 | 11 | 248 | 0.0 | 0.0 | 0.00 | 0.00 | 0.00 | 78 | 1013.9 |
| 20260903162156 | 11 | 248 | 0.0 | 0.0 | 0.00 | 0.00 | 0.00 | 78 | 1014.0 |
| 20260903161953 | 11 | 248 | 0.0 | 0.0 | 0.00 | 0.00 | 0.00 | 79 | 1014.0 |
| 20260903161741 | 11 | 248 | 0.0 | 1.6 | 0.00 | 0.00 | 0.00 | 79 | 1013.9 |
| 20260903161537 | 11 | 248 | 0.0 | 1.6 | 0.00 | 0.00 | 0.00 | 80 | 1013.9 |
| 20260903161332 | 11 | 248 | 0.0 | 4.8 | 0.00 | 0.00 | 0.00 | 80 | 1013.9 |
| 20260903160941 | 10 | 251 | 0.0 | 0.0 | 0.00 | 0.00 | 0.00 | 80 | 1013.9 |
| 20260903160728 | 10 | 251 | 0.0 | 0.0 | 0.00 | 0.00 | 0.00 | 80 | 1013.9 |
| 20260903160338 | 10 | 251 | 0.0 | 0.0 | 0.00 | 0.00 | 0.00 | 80 | 1013.9 |
| 20260903160128 | 10 | 251 | 0.0 | 0.0 | 0.00 | 0.00 | 0.00 | 80 | 1013.9 |
| 20260903155924 | 10 | 251 | 0.0 | 0.0 | 0.00 | 0.00 | 0.00 | 80 | 1014.0 |
| 20260903155721 | 10 | 251 | 0.0 | 0.0 | 0.00 | 0.00 | 0.00 | 79 | 1014.0 |
| 20260903155512 | 10 | 251 | 0.0 | 0.0 | 0.00 | 0.00 | 0.00 | 79 | 1014.0 |
| 20260903155307 | 10 | 251 | 0.0 | 0.0 | 0.00 | 0.00 | 0.00 | 79 | 1014.0 |
| 20260903155055 | 9 | 251 | 0.0 | 0.0 | 0.00 | 0.00 | 0.00 | 78 | 1014.0 |
| 20260903154848 | 9 | 251 | 0.0 | 0.0 | 0.00 | 0.00 | 0.00 | 78 | 1014.0 |
| 20260903154638 | 9 | 251 | 0.0 | 0.0 | 0.00 | 0.00 | 0.00 | 78 | 1014.0 |
| 20260903154246 | 9 | 251 | 0.0 | 0.0 | 0.00 | 0.00 | 0.00 | 77 | 1014.0 |
| 20260903154037 | 9 | 251 | 0.0 | 0.0 | 0.00 | 0.00 | 0.00 | 77 | 1013.9 |
| 20260903153826 | 9 | 251 | 0.0 | 0.0 | 0.00 | 0.00 | 0.00 | 77 | 1014.0 |
| 20260903153624 | 9 | 251 | 0.0 | 0.0 | 0.00 | 0.00 | 0.00 | 77 | 1014.0 |
| 20260903153414 | 9 | 251 | 0.0 | 0.0 | 0.00 | 0.00 | 0.00 | 77 | 1014.0 |
| 20260903153203 | 8 | 251 | 0.0 | 0.0 | 0.00 | 0.00 | 0.00 | 76 | 1014.1 |
| 20260903152952 | 8 | 251 | 0.0 | 0.0 | 0.00 | 0.00 | 0.00 | 76 | 1014.1 |
| 20260903152746 | 8 | 251 | 0.0 | 0.0 | 0.00 | 0.00 | 0.00 | 76 | 1014.1 |
| 20260903152205 | 8 | 251 | 0.0 | 0.0 | 0.00 | 0.00 | 0.00 | 76 | 1014.2 |
| 20260903152004 | 8 | 251 | 0.0 | 0.0 | 0.00 | 0.00 | 0.00 | 76 | 1014.2 |
| 20260903151429 | 8 | 251 | 0.0 | 0.0 | 0.00 | 0.00 | 0.00 | 76 | 1014.1 |
| 20260903151223 | 8 | 251 | 0.0 | 0.0 | 0.00 | 0.00 | 0.00 | 75 | 1014.2 |
| 20260903151014 | 8 | 251 | 0.0 | 0.0 | 0.00 | 0.00 | 0.00 | 75 | 1014.1 |
| 20260903150804 | 8 | 251 | 0.0 | 0.0 | 0.00 | 0.00 | 0.00 | 75 | 1014.1 |
| 20260903150559 | 8 | 251 | 0.0 | 0.0 | 0.00 | 0.00 | 0.00 | 75 | 1014.3 |
| 20260903150351 | 8 | 251 | 0.0 | 0.0 | 0.00 | 0.00 | 0.00 | 75 | 1014.3 |
| 20260903150138 | 8 | 251 | 0.0 | 0.0 | 0.00 | 0.00 | 0.00 | 75 | 1014.2 |
| 20260903145932 | 8 | 251 | 0.0 | 0.0 | 0.00 | 0.00 | 0.00 | 75 | 1014.2 |
| 20260903145723 | 8 | 251 | 0.0 | 0.0 | 0.00 | 0.00 | 0.00 | 75 | 1014.2 |
| 20260903145514 | 8 | 251 | 0.0 | 0.0 | 0.00 | 0.00 | 0.00 | 75 | 1014.3 |
| 20260903145307 | 8 | 251 | 0.0 | 0.0 | 0.00 | 0.00 | 0.00 | 75 | 1014.3 |
| 20260903145054 | 8 | 251 | 0.0 | 0.0 | 0.00 | 0.00 | 0.00 | 75 | 1014.3 |
| 20260903144704 | 8 | 251 | 0.0 | 0.0 | 0.00 | 0.00 | 0.00 | 74 | 1014.3 |
| 20260903144457 | 8 | 251 | 0.0 | 0.0 | 0.00 | 0.00 | 0.00 | 74 | 1014.2 |
| 20260903144107 | 8 | 251 | 0.0 | 0.0 | 0.00 | 0.00 | 0.00 | 74 | 1014.3 |
| 20260903143858 | 8 | 251 | 0.0 | 0.0 | 0.00 | 0.00 | 0.00 | 74 | 1014.3 |
| 20260903143654 | 8 | 251 | 0.0 | 0.0 | 0.00 | 0.00 | 0.00 | 74 | 1014.2 |
| 20260903143445 | 8 | 251 | 0.0 | 0.0 | 0.00 | 0.00 | 0.00 | 74 | 1014.2 |
| 20260903143240 | 8 | 251 | 0.0 | 0.0 | 0.00 | 0.00 | 0.00 | 74 | 1014.2 |
| 20260903143038 | 8 | 251 | 0.0 | 0.0 | 0.00 | 0.00 | 0.00 | 74 | 1014.1 |
| 20260903142826 | 8 | 251 | 0.0 | 0.0 | 0.00 | 0.00 | 0.00 | 74 | 1014.1 |
| 20260903142618 | 8 | 251 | 0.0 | 0.0 | 0.00 | 0.00 | 0.00 | 74 | 1014.1 |
| 20260903142221 | 8 | 251 | 0.0 | 0.0 | 0.00 | 0.00 | 0.00 | 74 | 1014.1 |
| 20260903142015 | 8 | 251 | 0.0 | 0.0 | 0.00 | 0.00 | 0.00 | 74 | 1014.0 |
| 20260903141618 | 8 | 251 | 0.0 | 0.0 | 0.00 | 0.00 | 0.00 | 73 | 1014.0 |
| 20260903141411 | 8 | 251 | 0.0 | 0.0 | 0.00 | 0.00 | 0.00 | 73 | 1014.1 |
| 20260903141200 | 8 | 251 | 0.0 | 0.0 | 0.00 | 0.00 | 0.00 | 73 | 1014.0 |
| 20260903140953 | 8 | 251 | 0.0 | 0.0 | 0.00 | 0.00 | 0.00 | 73 | 1014.0 |
| 20260903140745 | 8 | 251 | 0.0 | 0.0 | 0.00 | 0.00 | 0.00 | 73 | 1014.0 |
| 20260903140532 | 8 | 251 | 0.0 | 0.0 | 0.00 | 0.00 | 0.00 | 73 | 1013.9 |
| 20260903140320 | 8 | 251 | 0.0 | 0.0 | 0.00 | 0.00 | 0.00 | 73 | 1013.9 |
| 20260903140118 | 8 | 251 | 0.0 | 0.0 | 0.00 | 0.00 | 0.00 | 73 | 1013.9 |
| 20260903135915 | 8 | 251 | 0.0 | 0.0 | 0.00 | 0.00 | 0.00 | 73 | 1014.0 |
| 20260903135708 | 8 | 251 | 0.0 | 0.0 | 0.00 | 0.00 | 0.00 | 73 | 1014.0 |
| 20260903135500 | 8 | 251 | 0.0 | 0.0 | 0.00 | 0.00 | 0.00 | 73 | 1014.0 |
| 20260903135254 | 8 | 251 | 0.0 | 0.0 | 0.00 | 0.00 | 0.00 | 73 | 1013.9 |
| 20260903135047 | 8 | 251 | 0.0 | 0.0 | 0.00 | 0.00 | 0.00 | 73 | 1013.9 |
| 20260903134655 | 8 | 251 | 0.0 | 0.0 | 0.00 | 0.00 | 0.00 | 73 | 1013.8 |
| 20260903134447 | 8 | 251 | 0.0 | 0.0 | 0.00 | 0.00 | 0.00 | 73 | 1013.8 |
| 20260903134245 | 8 | 251 | 0.0 | 0.0 | 0.00 | 0.00 | 0.00 | 73 | 1013.8 |
| 20260903133857 | 8 | 251 | 0.0 | 0.0 | 0.00 | 0.00 | 0.00 | 73 | 1013.8 |
| 20260903133653 | 8 | 251 | 0.0 | 0.0 | 0.00 | 0.00 | 0.00 | 73 | 1013.8 |
| 20260903133448 | 8 | 251 | 0.0 | 0.0 | 0.00 | 0.00 | 0.00 | 73 | 1013.8 |
| 20260903133240 | 8 | 251 | 0.0 | 0.0 | 0.00 | 0.00 | 0.00 | 73 | 1013.8 |
| 20260903133039 | 8 | 251 | 0.0 | 0.0 | 0.00 | 0.00 | 0.00 | 72 | 1013.8 |
| 20260903132835 | 8 | 251 | 0.0 | 0.0 | 0.00 | 0.00 | 0.00 | 72 | 1013.7 |
| 20260903132257 | 8 | 251 | 0.0 | 0.0 | 0.00 | 0.00 | 0.00 | 72 | 1013.8 |
| 20260903131626 | 8 | 251 | 0.0 | 0.0 | 0.00 | 0.00 | 0.00 | 72 | 1013.7 |
| 20260903131417 | 8 | 251 | 0.0 | 0.0 | 0.00 | 0.00 | 0.00 | 72 | 1013.8 |
| 20260903131214 | 8 | 251 | 0.0 | 0.0 | 0.00 | 0.00 | 0.00 | 72 | 1013.8 |
| 20260903130826 | 8 | 251 | 0.0 | 0.0 | 0.00 | 0.00 | 0.00 | 72 | 1013.8 |
| 20260903130618 | 8 | 251 | 0.0 | 0.0 | 0.00 | 0.00 | 0.00 | 72 | 1013.8 |
| 20260903130415 | 8 | 251 | 0.0 | 0.0 | 0.00 | 0.00 | 0.00 | 72 | 1013.8 |
| 20260903130026 | 8 | 251 | 0.0 | 0.0 | 0.00 | 0.00 | 0.00 | 72 | 1013.8 |
| 20260903125823 | 8 | 251 | 0.0 | 0.0 | 0.00 | 0.00 | 0.00 | 72 | 1013.8 |
| 20260903125619 | 8 | 251 | 0.0 | 0.0 | 0.00 | 0.00 | 0.00 | 72 | 1013.8 |
| 20260903125415 | 8 | 251 | 0.0 | 0.0 | 0.00 | 0.00 | 0.00 | 72 | 1013.8 |
| 20260903125210 | 8 | 251 | 0.0 | 0.0 | 0.00 | 0.00 | 0.00 | 72 | 1013.8 |
| 20260903125000 | 8 | 251 | 0.0 | 0.0 | 0.00 | 0.00 | 0.00 | 72 | 1013.8 |
| 20260903124756 | 8 | 251 | 0.0 | 0.0 | 0.00 | 0.00 | 0.00 | 71 | 1013.8 |
| 20260903124543 | 8 | 251 | 0.0 | 0.0 | 0.00 | 0.00 | 0.00 | 71 | 1013.8 |
| 20260903124337 | 8 | 251 | 0.0 | 0.0 | 0.00 | 0.00 | 0.00 | 71 | 1013.9 |
| 20260903124131 | 8 | 251 | 0.0 | 0.0 | 0.00 | 0.00 | 0.00 | 71 | 1013.9 |
| 20260903123921 | 8 | 251 | 0.0 | 0.0 | 0.00 | 0.00 | 0.00 | 71 | 1013.9 |
| 20260903123719 | 8 | 251 | 0.0 | 0.0 | 0.00 | 0.00 | 0.00 | 71 | 1013.9 |
| 20260903123513 | 8 | 251 | 0.0 | 0.0 | 0.00 | 0.00 | 0.00 | 71 | 1014.0 |
| 20260903123303 | 8 | 251 | 0.0 | 0.0 | 0.00 | 0.00 | 0.00 | 71 | 1014.0 |
| 20260903123100 | 8 | 251 | 0.0 | 0.0 | 0.00 | 0.00 | 0.00 | 71 | 1014.0 |
| 20260903122857 | 8 | 251 | 0.0 | 0.0 | 0.00 | 0.00 | 0.00 | 71 | 1014.0 |
| 20260903122645 | 8 | 251 | 0.0 | 0.0 | 0.00 | 0.00 | 0.00 | 71 | 1014.0 |
| 20260903122434 | 8 | 251 | 0.0 | 0.0 | 0.00 | 0.00 | 0.00 | 71 | 1014.0 |
| 20260903122225 | 8 | 251 | 0.0 | 0.0 | 0.00 | 0.00 | 0.00 | 71 | 1014.0 |
| 20260903122021 | 8 | 251 | 0.0 | 0.0 | 0.00 | 0.00 | 0.00 | 71 | 1014.0 |
| 20260903121624 | 8 | 251 | 0.0 | 0.0 | 0.00 | 0.00 | 0.00 | 71 | 1014.0 |
| 20260903121423 | 8 | 251 | 0.0 | 0.0 | 0.00 | 0.00 | 0.00 | 71 | 1013.9 |
| 20260903121215 | 8 | 251 | 0.0 | 0.0 | 0.00 | 0.00 | 0.00 | 70 | 1013.9 |
| 20260903120819 | 8 | 251 | 0.0 | 0.0 | 0.00 | 0.00 | 0.00 | 70 | 1014.0 |
| 20260903120424 | 8 | 251 | 0.0 | 0.0 | 0.00 | 0.00 | 0.00 | 70 | 1014.0 |
| 20260903120214 | 9 | 251 | 0.0 | 0.0 | 0.00 | 0.00 | 0.00 | 70 | 1014.0 |
| 20260903120005 | 9 | 251 | 0.0 | 0.0 | 0.00 | 0.00 | 0.00 | 70 | 1014.0 |
| 20260903115756 | 9 | 251 | 0.0 | 0.0 | 0.00 | 0.00 | 0.00 | 70 | 1014.0 |
| 20260903115405 | 9 | 251 | 0.0 | 0.0 | 0.00 | 0.00 | 0.00 | 70 | 1014.0 |
| 20260903115153 | 9 | 251 | 0.0 | 0.0 | 0.00 | 0.00 | 0.00 | 70 | 1014.0 |
| 20260903114944 | 9 | 251 | 0.0 | 0.0 | 0.00 | 0.00 | 0.00 | 70 | 1014.0 |
| 20260903114737 | 9 | 251 | 0.0 | 0.0 | 0.00 | 0.00 | 0.00 | 70 | 1014.0 |
| 20260903114530 | 9 | 251 | 0.0 | 0.0 | 0.00 | 0.00 | 0.00 | 70 | 1014.0 |
| 20260903114328 | 9 | 251 | 0.0 | 0.0 | 0.00 | 0.00 | 0.00 | 70 | 1014.0 |
| 20260903114122 | 9 | 251 | 0.0 | 0.0 | 0.00 | 0.00 | 0.00 | 70 | 1014.0 |
| 20260903113915 | 9 | 251 | 0.0 | 0.0 | 0.00 | 0.00 | 0.00 | 70 | 1014.0 |
| 20260903113709 | 9 | 251 | 0.0 | 0.0 | 0.00 | 0.00 | 0.00 | 70 | 1014.0 |
| 20260903113456 | 9 | 251 | 0.0 | 0.0 | 0.00 | 0.00 | 0.00 | 70 | 1014.0 |
| 20260903113247 | 9 | 251 | 0.0 | 0.0 | 0.00 | 0.00 | 0.00 | 70 | 1014.0 |
| 20260903113042 | 9 | 251 | 0.0 | 0.0 | 0.00 | 0.00 | 0.00 | 70 | 1014.1 |
| 20260903112837 | 9 | 251 | 0.0 | 0.0 | 0.00 | 0.00 | 0.00 | 70 | 1014.1 |
| 20260903112627 | 9 | 251 | 0.0 | 0.0 | 0.00 | 0.00 | 0.00 | 70 | 1014.0 |
| 20260903112414 | 9 | 251 | 0.0 | 0.0 | 0.00 | 0.00 | 0.00 | 70 | 1014.1 |
| 20260903112210 | 9 | 251 | 0.0 | 0.0 | 0.00 | 0.00 | 0.00 | 70 | 1014.1 |
| 20260903112000 | 9 | 251 | 0.0 | 0.0 | 0.00 | 0.00 | 0.00 | 70 | 1014.1 |
| 20260903111754 | 9 | 251 | 0.0 | 0.0 | 0.00 | 0.00 | 0.00 | 70 | 1014.1 |
| 20260903111541 | 9 | 251 | 0.0 | 0.0 | 0.00 | 0.00 | 0.00 | 69 | 1014.2 |
| 20260903111336 | 9 | 251 | 0.0 | 0.0 | 0.00 | 0.00 | 0.00 | 69 | 1014.2 |
| 20260903111131 | 9 | 251 | 0.0 | 0.0 | 0.00 | 0.00 | 0.00 | 69 | 1014.2 |
| 20260903110921 | 9 | 251 | 0.0 | 0.0 | 0.00 | 0.00 | 0.00 | 69 | 1014.2 |
| 20260903110719 | 9 | 251 | 0.0 | 0.0 | 0.00 | 0.00 | 0.00 | 69 | 1014.2 |
| 20260903110512 | 9 | 251 | 0.0 | 0.0 | 0.00 | 0.00 | 0.00 | 69 | 1014.2 |
| 20260903110125 | 9 | 251 | 0.0 | 0.0 | 0.00 | 0.00 | 0.00 | 69 | 1014.2 |
| 20260903105727 | 9 | 251 | 0.0 | 0.0 | 0.00 | 0.00 | 0.00 | 69 | 1014.3 |
| 20260903105525 | 9 | 251 | 0.0 | 0.0 | 0.00 | 0.00 | 0.00 | 69 | 1014.2 |
| 20260903105319 | 9 | 251 | 0.0 | 0.0 | 0.00 | 0.00 | 0.00 | 69 | 1014.2 |
| 20260903105113 | 9 | 251 | 0.0 | 0.0 | 0.00 | 0.00 | 0.00 | 69 | 1014.3 |
| 20260903104904 | 9 | 251 | 0.0 | 0.0 | 0.00 | 0.00 | 0.00 | 69 | 1014.3 |
| 20260903104654 | 9 | 251 | 0.0 | 0.0 | 0.00 | 0.00 | 0.00 | 69 | 1014.2 |
| 20260903104444 | 9 | 251 | 0.0 | 0.0 | 0.00 | 0.00 | 0.00 | 69 | 1014.3 |
| 20260903104057 | 9 | 251 | 0.0 | 0.0 | 0.00 | 0.00 | 0.00 | 69 | 1014.3 |
| 20260903103855 | 9 | 251 | 0.0 | 0.0 | 0.00 | 0.00 | 0.00 | 69 | 1014.3 |
| 20260903103648 | 9 | 251 | 0.0 | 0.0 | 0.00 | 0.00 | 0.00 | 69 | 1014.3 |
| 20260903103117 | 9 | 251 | 0.0 | 0.0 | 0.00 | 0.00 | 0.00 | 69 | 1014.3 |
| 20260903102915 | 9 | 251 | 0.0 | 0.0 | 0.00 | 0.00 | 0.00 | 69 | 1014.3 |
| 20260903102712 | 9 | 251 | 0.0 | 0.0 | 0.00 | 0.00 | 0.00 | 69 | 1014.3 |
| 20260903102510 | 9 | 251 | 0.0 | 0.0 | 0.00 | 0.00 | 0.00 | 68 | 1014.4 |
| 20260903102305 | 10 | 251 | 0.0 | 0.0 | 0.00 | 0.00 | 0.00 | 68 | 1014.3 |
| 20260903102054 | 10 | 251 | 0.0 | 0.0 | 0.00 | 0.00 | 0.00 | 68 | 1014.4 |
| 20260903101842 | 10 | 251 | 0.0 | 0.0 | 0.00 | 0.00 | 0.00 | 68 | 1014.4 |
| 20260903101634 | 10 | 251 | 0.0 | 0.0 | 0.00 | 0.00 | 0.00 | 68 | 1014.4 |
| 20260903101421 | 10 | 251 | 0.0 | 0.0 | 0.00 | 0.00 | 0.00 | 68 | 1014.4 |
| 20260903101215 | 10 | 251 | 0.0 | 0.0 | 0.00 | 0.00 | 0.00 | 68 | 1014.4 |
| 20260903101008 | 10 | 251 | 0.0 | 0.0 | 0.00 | 0.00 | 0.00 | 68 | 1014.4 |
| 20260903100758 | 10 | 251 | 0.0 | 0.0 | 0.00 | 0.00 | 0.00 | 68 | 1014.4 |
| 20260903100405 | 10 | 251 | 0.0 | 0.0 | 0.00 | 0.00 | 0.00 | 68 | 1014.4 |
| 20260903100156 | 10 | 251 | 0.0 | 0.0 | 0.00 | 0.00 | 0.00 | 68 | 1014.3 |
| 20260903095804 | 10 | 251 | 0.0 | 0.0 | 0.00 | 0.00 | 0.00 | 68 | 1014.3 |
| 20260903095555 | 10 | 251 | 0.0 | 0.0 | 0.00 | 0.00 | 0.00 | 68 | 1014.3 |
| 20260903095344 | 10 | 251 | 0.0 | 0.0 | 0.00 | 0.00 | 0.00 | 68 | 1014.4 |
| 20260903095138 | 10 | 251 | 0.0 | 0.0 | 0.00 | 0.00 | 0.00 | 68 | 1014.4 |
| 20260903094930 | 10 | 251 | 0.0 | 0.0 | 0.00 | 0.00 | 0.00 | 68 | 1014.4 |
| 20260903094717 | 10 | 251 | 0.0 | 0.0 | 0.00 | 0.00 | 0.00 | 68 | 1014.4 |
| 20260903094511 | 10 | 251 | 0.0 | 0.0 | 0.00 | 0.00 | 0.00 | 68 | 1014.4 |
| 20260903094302 | 10 | 251 | 0.0 | 0.0 | 0.00 | 0.00 | 0.00 | 68 | 1014.4 |
| 20260903094100 | 10 | 251 | 0.0 | 0.0 | 0.00 | 0.00 | 0.00 | 68 | 1014.4 |
| 20260903093855 | 10 | 251 | 0.0 | 0.0 | 0.00 | 0.00 | 0.00 | 67 | 1014.4 |
| 20260903093643 | 10 | 251 | 0.0 | 0.0 | 0.00 | 0.00 | 0.00 | 67 | 1014.4 |
| 20260903093432 | 10 | 251 | 0.0 | 0.0 | 0.00 | 0.00 | 0.00 | 67 | 1014.4 |
| 20260903093221 | 10 | 251 | 0.0 | 0.0 | 0.00 | 0.00 | 0.00 | 67 | 1014.4 |
| 20260903092827 | 10 | 251 | 0.0 | 0.0 | 0.00 | 0.00 | 0.00 | 67 | 1014.4 |
| 20260903092615 | 10 | 251 | 0.0 | 0.0 | 0.00 | 0.00 | 0.00 | 67 | 1014.5 |
| 20260903092402 | 10 | 251 | 0.0 | 0.0 | 0.00 | 0.00 | 0.00 | 67 | 1014.5 |
| 20260903092158 | 10 | 251 | 0.0 | 0.0 | 0.00 | 0.00 | 0.00 | 67 | 1014.5 |
| 20260903091952 | 10 | 251 | 0.0 | 0.0 | 0.00 | 0.00 | 0.00 | 67 | 1014.5 |
| 20260903091744 | 10 | 251 | 0.0 | 0.0 | 0.00 | 0.00 | 0.00 | 67 | 1014.6 |
| 20260903091532 | 10 | 251 | 0.0 | 0.0 | 0.00 | 0.00 | 0.00 | 67 | 1014.5 |
| 20260903091322 | 10 | 251 | 0.0 | 0.0 | 0.00 | 0.00 | 0.00 | 67 | 1014.5 |
| 20260903090929 | 10 | 251 | 0.0 | 0.0 | 0.00 | 0.00 | 0.00 | 67 | 1014.5 |
| 20260903090721 | 10 | 251 | 0.0 | 0.0 | 0.00 | 0.00 | 0.00 | 67 | 1014.5 |
| 20260903090510 | 10 | 251 | 0.0 | 0.0 | 0.00 | 0.00 | 0.00 | 67 | 1014.5 |
| 20260903090045 | 10 | 251 | 0.0 | 0.0 | 0.00 | 0.00 | 0.00 | 67 | 1014.5 |
| 20260903085837 | 10 | 251 | 0.0 | 0.0 | 0.00 | 0.00 | 0.00 | 67 | 1014.5 |
| 20260903085624 | 10 | 251 | 0.0 | 0.0 | 0.00 | 0.00 | 0.00 | 67 | 1014.5 |
| 20260903085414 | 10 | 251 | 0.0 | 0.0 | 0.00 | 0.00 | 0.00 | 66 | 1014.6 |
| 20260903085208 | 10 | 251 | 0.0 | 0.0 | 0.00 | 0.00 | 0.00 | 66 | 1014.6 |
| 20260903084959 | 10 | 251 | 0.0 | 0.0 | 0.00 | 0.00 | 0.00 | 66 | 1014.7 |
| 20260903084752 | 10 | 251 | 0.0 | 0.0 | 0.00 | 0.00 | 0.00 | 66 | 1014.7 |
| 20260903084549 | 10 | 251 | 0.0 | 0.0 | 0.00 | 0.00 | 0.00 | 66 | 1014.7 |
| 20260903084337 | 10 | 251 | 0.0 | 0.0 | 0.00 | 0.00 | 0.00 | 66 | 1014.7 |
| 20260903084127 | 10 | 251 | 0.0 | 0.0 | 0.00 | 0.00 | 0.00 | 66 | 1014.7 |
| 20260903083921 | 10 | 251 | 0.0 | 0.0 | 0.00 | 0.00 | 0.00 | 66 | 1014.7 |
| 20260903083712 | 10 | 251 | 0.0 | 0.0 | 0.00 | 0.00 | 0.00 | 66 | 1014.7 |
| 20260903083504 | 10 | 251 | 0.0 | 0.0 | 0.00 | 0.00 | 0.00 | 66 | 1014.7 |
| 20260903083257 | 10 | 251 | 0.0 | 0.0 | 0.00 | 0.00 | 0.00 | 66 | 1014.7 |
| 20260903083051 | 10 | 251 | 0.0 | 0.0 | 0.00 | 0.00 | 0.00 | 66 | 1014.7 |
| 20260903082654 | 10 | 251 | 0.0 | 0.0 | 0.00 | 0.00 | 0.00 | 66 | 1014.8 |
| 20260903082448 | 10 | 251 | 0.0 | 0.0 | 0.00 | 0.00 | 0.00 | 66 | 1014.7 |
| 20260903082054 | 10 | 251 | 0.0 | 0.0 | 0.00 | 0.00 | 0.00 | 66 | 1014.8 |
| 20260903081847 | 10 | 251 | 0.0 | 0.0 | 0.00 | 0.00 | 0.00 | 66 | 1014.8 |
| 20260903081640 | 10 | 251 | 0.0 | 0.0 | 0.00 | 0.00 | 0.00 | 65 | 1014.7 |
| 20260903081437 | 10 | 251 | 0.0 | 0.0 | 0.00 | 0.00 | 0.00 | 65 | 1014.7 |
| 20260903081228 | 10 | 251 | 0.0 | 0.0 | 0.00 | 0.00 | 0.00 | 65 | 1014.7 |
| 20260903081019 | 10 | 251 | 0.0 | 0.0 | 0.00 | 0.00 | 0.00 | 65 | 1014.7 |
| 20260903080629 | 10 | 251 | 0.0 | 0.0 | 0.00 | 0.00 | 0.00 | 65 | 1014.7 |
| 20260903080422 | 10 | 251 | 0.0 | 0.0 | 0.00 | 0.00 | 0.00 | 65 | 1014.7 |
| 20260903080217 | 10 | 251 | 0.0 | 0.0 | 0.00 | 0.00 | 0.00 | 65 | 1014.8 |
| 20260903080008 | 10 | 251 | 0.0 | 0.0 | 0.00 | 0.00 | 0.00 | 65 | 1014.8 |
| 20260903075800 | 10 | 251 | 0.0 | 0.0 | 0.00 | 0.00 | 0.00 | 65 | 1014.8 |
| 20260903075407 | 10 | 251 | 0.0 | 0.0 | 0.00 | 0.00 | 0.00 | 65 | 1014.9 |
| 20260903075201 | 10 | 251 | 0.0 | 0.0 | 0.00 | 0.00 | 0.00 | 65 | 1014.8 |
| 20260903074955 | 10 | 251 | 0.0 | 0.0 | 0.00 | 0.00 | 0.00 | 65 | 1014.8 |
| 20260903074606 | 11 | 251 | 0.0 | 0.0 | 0.00 | 0.00 | 0.00 | 64 | 1014.8 |
| 20260903074355 | 11 | 251 | 0.0 | 0.0 | 0.00 | 0.00 | 0.00 | 64 | 1014.8 |
| 20260903074007 | 11 | 251 | 0.0 | 0.0 | 0.00 | 0.00 | 0.00 | 64 | 1014.8 |
| 20260903073618 | 11 | 251 | 0.0 | 0.0 | 0.00 | 0.00 | 0.00 | 64 | 1014.8 |
| 20260903073412 | 11 | 251 | 0.0 | 0.0 | 0.00 | 0.00 | 0.00 | 64 | 1014.8 |
| 20260903073202 | 11 | 251 | 0.0 | 0.0 | 0.00 | 0.00 | 0.00 | 64 | 1014.7 |
| 20260903072958 | 11 | 251 | 0.0 | 0.0 | 0.00 | 0.00 | 0.00 | 64 | 1014.8 |
| 20260903072746 | 11 | 251 | 0.0 | 0.0 | 0.00 | 0.00 | 0.00 | 64 | 1014.7 |
| 20260903072539 | 11 | 251 | 0.0 | 0.0 | 0.00 | 0.00 | 0.00 | 64 | 1014.7 |
| 20260903072333 | 11 | 251 | 0.0 | 0.0 | 0.00 | 0.00 | 0.00 | 64 | 1014.7 |
| 20260903072122 | 11 | 251 | 0.0 | 0.0 | 0.00 | 0.00 | 0.00 | 64 | 1014.7 |
| 20260903071354 | 11 | 251 | 0.0 | 0.0 | 0.00 | 0.00 | 0.00 | 63 | 1014.8 |
| 20260903071142 | 11 | 251 | 0.0 | 0.0 | 0.00 | 0.00 | 0.00 | 63 | 1014.7 |
| 20260903070938 | 11 | 251 | 0.0 | 0.0 | 0.00 | 0.00 | 0.00 | 63 | 1014.8 |
| 20260903070726 | 11 | 251 | 0.0 | 0.0 | 0.00 | 0.00 | 0.00 | 63 | 1014.7 |
| 20260903070522 | 11 | 251 | 0.0 | 0.0 | 0.00 | 0.00 | 0.00 | 63 | 1014.8 |
| 20260903070124 | 11 | 251 | 0.0 | 0.0 | 0.00 | 0.00 | 0.00 | 63 | 1014.7 |
| 20260903065915 | 11 | 251 | 0.0 | 0.0 | 0.00 | 0.00 | 0.00 | 63 | 1014.7 |
| 20260903065710 | 11 | 251 | 0.0 | 0.0 | 0.00 | 0.00 | 0.00 | 62 | 1014.8 |
| 20260903065506 | 11 | 251 | 0.0 | 0.0 | 0.00 | 0.00 | 0.00 | 62 | 1014.8 |
| 20260903065253 | 11 | 251 | 0.0 | 0.0 | 0.00 | 0.00 | 0.00 | 62 | 1014.7 |
| 20260903065051 | 11 | 251 | 0.0 | 0.0 | 0.00 | 0.00 | 0.00 | 62 | 1014.8 |
| 20260903064838 | 11 | 251 | 0.0 | 0.0 | 0.00 | 0.00 | 0.00 | 62 | 1014.7 |
| 20260903064629 | 11 | 251 | 0.0 | 0.0 | 0.00 | 0.00 | 0.00 | 62 | 1014.7 |
| 20260903064423 | 11 | 251 | 0.0 | 0.0 | 0.00 | 0.00 | 0.00 | 62 | 1014.7 |
| 20260903064217 | 11 | 251 | 0.0 | 0.0 | 0.00 | 0.00 | 0.00 | 62 | 1014.7 |
| 20260903064012 | 11 | 251 | 0.0 | 0.0 | 0.00 | 0.00 | 0.00 | 61 | 1014.7 |
| 20260903063802 | 11 | 251 | 0.0 | 0.0 | 0.00 | 0.00 | 0.00 | 62 | 1014.7 |
| 20260903063414 | 11 | 251 | 0.0 | 0.0 | 0.00 | 0.00 | 0.00 | 61 | 1014.7 |
| 20260903063211 | 11 | 251 | 0.0 | 0.0 | 0.00 | 0.00 | 0.00 | 61 | 1014.7 |
| 20260903063004 | 11 | 251 | 0.0 | 0.0 | 0.00 | 0.00 | 0.00 | 61 | 1014.7 |
| 20260903062757 | 11 | 251 | 0.0 | 0.0 | 0.00 | 0.00 | 0.00 | 61 | 1014.7 |
| 20260903062552 | 11 | 251 | 0.0 | 0.0 | 0.00 | 0.00 | 0.00 | 61 | 1014.7 |
| 20260903062339 | 11 | 251 | 0.0 | 0.0 | 0.00 | 0.00 | 0.00 | 61 | 1014.7 |
| 20260903062127 | 11 | 251 | 0.0 | 0.0 | 0.00 | 0.00 | 0.00 | 60 | 1014.6 |
| 20260903061921 | 11 | 251 | 0.0 | 0.0 | 0.00 | 0.00 | 0.00 | 60 | 1014.6 |
| 20260903061711 | 12 | 251 | 0.0 | 0.0 | 0.00 | 0.00 | 0.00 | 60 | 1014.7 |
| 20260903061508 | 12 | 251 | 0.0 | 0.0 | 0.00 | 0.00 | 0.00 | 60 | 1014.7 |
| 20260903061115 | 12 | 251 | 0.0 | 0.0 | 0.00 | 0.00 | 0.00 | 60 | 1014.7 |
| 20260903060723 | 12 | 251 | 0.0 | 0.0 | 0.00 | 0.00 | 0.00 | 60 | 1014.7 |
| 20260903060510 | 12 | 251 | 0.0 | 0.0 | 0.00 | 0.00 | 0.00 | 60 | 1014.8 |
| 20260903060113 | 12 | 251 | 0.0 | 0.0 | 0.00 | 0.00 | 0.00 | 59 | 1014.9 |
| 20260903055908 | 12 | 251 | 0.0 | 0.0 | 0.00 | 0.00 | 0.00 | 59 | 1014.9 |
| 20260903055701 | 12 | 251 | 0.0 | 0.0 | 0.00 | 0.00 | 0.00 | 59 | 1014.9 |
| 20260903055453 | 12 | 251 | 0.0 | 0.0 | 0.00 | 0.00 | 0.00 | 59 | 1014.9 |
| 20260903055245 | 12 | 251 | 0.0 | 0.0 | 0.00 | 0.00 | 0.00 | 59 | 1014.9 |
| 20260903055043 | 12 | 251 | 0.0 | 0.0 | 0.00 | 0.00 | 0.00 | 59 | 1014.9 |
| 20260903054837 | 12 | 251 | 0.0 | 0.0 | 0.00 | 0.00 | 0.00 | 59 | 1014.9 |
| 20260903054625 | 12 | 251 | 0.0 | 0.0 | 0.00 | 0.00 | 0.00 | 59 | 1014.8 |
| 20260903054419 | 12 | 251 | 0.0 | 0.0 | 0.00 | 0.00 | 0.00 | 59 | 1014.8 |
| 20260903054209 | 12 | 251 | 0.0 | 0.0 | 0.00 | 0.00 | 0.00 | 59 | 1014.9 |
| 20260903054000 | 12 | 251 | 0.0 | 0.0 | 0.00 | 0.00 | 0.00 | 58 | 1014.9 |
| 20260903053756 | 12 | 251 | 0.0 | 0.0 | 0.00 | 0.00 | 0.00 | 58 | 1015.0 |
| 20260903053550 | 12 | 251 | 0.0 | 0.0 | 0.00 | 0.00 | 0.00 | 58 | 1015.0 |
| 20260903053156 | 12 | 251 | 0.0 | 0.0 | 0.00 | 0.00 | 0.00 | 58 | 1015.0 |
| 20260903052953 | 12 | 251 | 0.0 | 0.0 | 0.00 | 0.00 | 0.00 | 58 | 1015.0 |
| 20260903052419 | 12 | 251 | 0.0 | 0.0 | 0.00 | 0.00 | 0.00 | 58 | 1015.2 |
| 20260903052210 | 12 | 251 | 0.0 | 0.0 | 0.00 | 0.00 | 0.00 | 58 | 1015.1 |
| 20260903051958 | 13 | 251 | 0.0 | 0.0 | 0.00 | 0.00 | 0.00 | 58 | 1015.2 |
| 20260903051748 | 13 | 251 | 0.0 | 0.0 | 0.00 | 0.00 | 0.00 | 57 | 1015.1 |
| 20260903051538 | 13 | 251 | 0.0 | 0.0 | 0.00 | 0.00 | 0.00 | 57 | 1015.1 |
| 20260903051331 | 13 | 251 | 0.0 | 0.0 | 0.00 | 0.00 | 0.00 | 57 | 1015.1 |
| 20260903051122 | 13 | 251 | 0.0 | 0.0 | 0.00 | 0.00 | 0.00 | 57 | 1015.1 |
| 20260903050912 | 13 | 251 | 0.0 | 0.0 | 0.00 | 0.00 | 0.00 | 57 | 1015.1 |
| 20260903050708 | 13 | 251 | 0.0 | 0.0 | 0.00 | 0.00 | 0.00 | 57 | 1015.1 |
| 20260903050503 | 13 | 251 | 0.0 | 0.0 | 0.00 | 0.00 | 0.00 | 56 | 1015.1 |
| 20260903050302 | 13 | 251 | 0.0 | 0.0 | 0.00 | 0.00 | 0.00 | 56 | 1015.2 |
| 20260903045906 | 13 | 251 | 0.0 | 0.0 | 0.00 | 0.00 | 0.00 | 56 | 1015.2 |
| 20260903045701 | 13 | 251 | 0.0 | 0.0 | 0.00 | 0.00 | 0.00 | 56 | 1015.2 |
| 20260903045312 | 13 | 251 | 0.0 | 0.0 | 0.00 | 0.00 | 0.00 | 56 | 1015.3 |
| 20260903045103 | 13 | 251 | 0.0 | 0.0 | 0.00 | 0.00 | 0.00 | 56 | 1015.2 |
| 20260903044850 | 13 | 251 | 0.0 | 0.0 | 0.00 | 0.00 | 0.00 | 55 | 1015.3 |
| 20260903044644 | 13 | 251 | 0.0 | 0.0 | 0.00 | 0.00 | 0.00 | 55 | 1015.3 |
| 20260903044252 | 13 | 251 | 0.0 | 0.0 | 0.00 | 0.00 | 0.00 | 55 | 1015.2 |
| 20260903044039 | 13 | 251 | 0.0 | 0.0 | 0.00 | 0.00 | 0.00 | 55 | 1015.2 |
| 20260903043651 | 13 | 251 | 0.0 | 0.0 | 0.00 | 0.00 | 0.00 | 55 | 1015.2 |
| 20260903043440 | 13 | 251 | 0.0 | 0.0 | 0.00 | 0.00 | 0.00 | 55 | 1015.2 |
| 20260903043231 | 14 | 251 | 0.0 | 0.0 | 0.00 | 0.00 | 0.00 | 54 | 1015.1 |
| 20260903042841 | 14 | 251 | 0.0 | 0.0 | 0.00 | 0.00 | 0.00 | 54 | 1015.2 |
| 20260903042635 | 14 | 251 | 0.0 | 0.0 | 0.00 | 0.00 | 0.00 | 54 | 1015.1 |
| 20260903042055 | 14 | 251 | 0.0 | 0.0 | 0.00 | 0.00 | 0.00 | 53 | 1015.1 |
| 20260903041850 | 14 | 251 | 0.0 | 0.0 | 0.00 | 0.00 | 0.00 | 53 | 1015.1 |
| 20260903041646 | 14 | 251 | 0.0 | 0.0 | 0.00 | 0.00 | 0.00 | 53 | 1015.1 |
| 20260903041439 | 14 | 251 | 0.0 | 0.0 | 0.00 | 0.00 | 0.00 | 53 | 1015.1 |
| 20260903041230 | 14 | 251 | 0.0 | 0.0 | 0.00 | 0.00 | 0.00 | 53 | 1015.1 |
| 20260903041021 | 15 | 251 | 0.0 | 0.0 | 0.00 | 0.00 | 0.00 | 52 | 1015.0 |
| 20260903040813 | 15 | 251 | 0.0 | 0.0 | 0.00 | 0.00 | 0.00 | 52 | 1015.0 |
| 20260903040600 | 15 | 251 | 0.0 | 0.0 | 0.00 | 0.00 | 0.00 | 52 | 1015.0 |
| 20260903040356 | 15 | 251 | 0.0 | 0.0 | 0.00 | 0.00 | 0.00 | 52 | 1015.0 |
| 20260903040150 | 15 | 251 | 0.0 | 0.0 | 0.00 | 0.00 | 0.00 | 52 | 1015.0 |
| 20260903035946 | 15 | 251 | 0.0 | 0.0 | 0.00 | 0.00 | 0.00 | 52 | 1015.0 |
| 20260903035550 | 15 | 251 | 0.0 | 0.0 | 0.00 | 0.00 | 0.00 | 51 | 1015.0 |
| 20260903035344 | 15 | 251 | 0.0 | 0.0 | 0.00 | 0.00 | 0.00 | 51 | 1015.0 |
| 20260903035142 | 15 | 251 | 0.0 | 0.0 | 0.00 | 0.00 | 0.00 | 51 | 1014.9 |
| 20260903034939 | 15 | 251 | 0.0 | 0.0 | 0.00 | 0.00 | 0.00 | 51 | 1014.9 |
| 20260903034727 | 15 | 251 | 0.0 | 0.0 | 0.00 | 0.00 | 0.00 | 50 | 1014.9 |
| 20260903034522 | 15 | 251 | 0.0 | 0.0 | 0.00 | 0.00 | 0.00 | 50 | 1014.9 |
| 20260903034311 | 15 | 251 | 0.0 | 0.0 | 0.00 | 0.00 | 0.00 | 50 | 1014.8 |
| 20260903034059 | 16 | 251 | 0.0 | 0.0 | 0.00 | 0.00 | 0.00 | 50 | 1014.8 |
| 20260903033853 | 16 | 251 | 0.0 | 0.0 | 0.00 | 0.00 | 0.00 | 50 | 1014.7 |
| 20260903033642 | 16 | 251 | 0.0 | 0.0 | 0.00 | 0.00 | 0.00 | 49 | 1014.8 |
| 20260903033438 | 16 | 251 | 0.0 | 0.0 | 0.00 | 0.00 | 0.00 | 49 | 1014.7 |
| 20260903033226 | 16 | 251 | 0.0 | 0.0 | 0.00 | 0.00 | 0.00 | 49 | 1014.7 |
| 20260903033022 | 16 | 251 | 0.0 | 0.0 | 0.00 | 0.00 | 0.00 | 49 | 1014.7 |
| 20260903032820 | 16 | 251 | 0.0 | 0.0 | 0.00 | 0.00 | 0.00 | 48 | 1014.6 |
| 20260903032618 | 16 | 251 | 0.0 | 0.0 | 0.00 | 0.00 | 0.00 | 48 | 1014.6 |
| 20260903032409 | 16 | 251 | 0.0 | 0.0 | 0.00 | 0.00 | 0.00 | 48 | 1014.6 |
| 20260903032201 | 16 | 251 | 0.0 | 0.0 | 0.00 | 0.00 | 0.00 | 48 | 1014.6 |
| 20260903031955 | 17 | 251 | 0.0 | 0.0 | 0.00 | 0.00 | 0.00 | 48 | 1014.5 |
| 20260903031745 | 17 | 251 | 0.0 | 0.0 | 0.00 | 0.00 | 0.00 | 47 | 1014.5 |
| 20260903031348 | 17 | 251 | 0.0 | 0.0 | 0.00 | 0.00 | 0.00 | 47 | 1014.5 |
| 20260903031142 | 17 | 251 | 0.0 | 0.0 | 0.00 | 0.00 | 0.00 | 47 | 1014.5 |
| 20260903030934 | 17 | 251 | 0.0 | 0.0 | 0.00 | 0.00 | 0.00 | 47 | 1014.5 |
| 20260903030726 | 17 | 251 | 0.0 | 0.0 | 0.00 | 0.00 | 0.00 | 47 | 1014.5 |
| 20260903030524 | 17 | 251 | 0.0 | 0.0 | 0.00 | 0.00 | 0.00 | 46 | 1014.5 |
| 20260903030133 | 18 | 251 | 0.0 | 0.0 | 0.00 | 0.00 | 0.00 | 46 | 1014.5 |
| 20260903025922 | 18 | 251 | 0.0 | 0.0 | 0.00 | 0.00 | 0.00 | 46 | 1014.5 |
| 20260903025712 | 18 | 251 | 0.0 | 0.0 | 0.00 | 0.00 | 0.00 | 46 | 1014.4 |
| 20260903025501 | 18 | 251 | 0.0 | 0.0 | 0.00 | 0.00 | 0.00 | 45 | 1014.4 |
| 20260903025254 | 18 | 251 | 0.0 | 0.0 | 0.00 | 0.00 | 0.00 | 45 | 1014.4 |
| 20260903025047 | 18 | 251 | 0.0 | 0.0 | 0.00 | 0.00 | 0.00 | 45 | 1014.3 |
| 20260903024840 | 18 | 251 | 0.0 | 0.0 | 0.00 | 0.00 | 0.00 | 45 | 1014.3 |
| 20260903024630 | 18 | 251 | 0.0 | 0.0 | 0.00 | 0.00 | 0.00 | 44 | 1014.3 |
| 20260903024426 | 18 | 251 | 0.0 | 0.0 | 0.00 | 0.00 | 0.00 | 45 | 1014.3 |
| 20260903024220 | 18 | 251 | 0.0 | 0.0 | 0.00 | 0.00 | 0.00 | 44 | 1014.3 |
| 20260903024009 | 19 | 251 | 0.0 | 0.0 | 0.00 | 0.00 | 0.00 | 44 | 1014.3 |
| 20260903023806 | 19 | 251 | 0.0 | 0.0 | 0.00 | 0.00 | 0.00 | 44 | 1014.3 |
| 20260903023556 | 19 | 251 | 0.0 | 0.0 | 0.00 | 0.00 | 0.00 | 44 | 1014.3 |
| 20260903023208 | 19 | 251 | 0.0 | 0.0 | 0.00 | 0.00 | 0.00 | 44 | 1014.3 |
| 20260903023003 | 19 | 251 | 0.0 | 0.0 | 0.00 | 0.00 | 0.00 | 44 | 1014.3 |
| 20260903022609 | 20 | 251 | 0.0 | 0.0 | 0.00 | 0.00 | 0.00 | 44 | 1014.4 |
| 20260903022402 | 20 | 251 | 0.0 | 0.0 | 0.00 | 0.00 | 0.00 | 44 | 1014.4 |
| 20260903022151 | 20 | 251 | 0.0 | 0.0 | 0.00 | 0.00 | 0.00 | 44 | 1014.4 |
| 20260903021943 | 20 | 251 | 0.0 | 0.0 | 0.00 | 0.00 | 0.00 | 44 | 1014.4 |
| 20260903021738 | 20 | 251 | 0.0 | 0.0 | 0.00 | 0.00 | 0.00 | 44 | 1014.4 |
| 20260903021526 | 20 | 251 | 0.0 | 0.0 | 0.00 | 0.00 | 0.00 | 44 | 1014.4 |
| 20260903021324 | 20 | 251 | 0.0 | 0.0 | 0.00 | 0.00 | 0.00 | 43 | 1014.4 |
| 20260903021119 | 20 | 251 | 0.0 | 0.0 | 0.00 | 0.00 | 0.00 | 43 | 1014.3 |
| 20260903020915 | 20 | 251 | 0.0 | 0.0 | 0.00 | 0.00 | 0.00 | 43 | 1014.3 |
| 20260903020705 | 20 | 251 | 0.0 | 0.0 | 0.00 | 0.00 | 0.00 | 43 | 1014.3 |
| 20260903020457 | 20 | 251 | 0.0 | 0.0 | 0.00 | 0.00 | 0.00 | 43 | 1014.3 |
| 20260903020250 | 20 | 251 | 0.0 | 0.0 | 0.00 | 0.00 | 0.00 | 43 | 1014.3 |
| 20260903015853 | 20 | 251 | 0.0 | 0.0 | 0.00 | 0.00 | 0.00 | 42 | 1014.3 |
| 20260903015645 | 20 | 251 | 0.0 | 0.0 | 0.00 | 0.00 | 0.00 | 43 | 1014.3 |
| 20260903015436 | 20 | 251 | 0.0 | 0.0 | 0.00 | 0.00 | 0.00 | 42 | 1014.3 |
| 20260903015227 | 20 | 251 | 0.0 | 6.4 | 0.00 | 0.00 | 0.00 | 41 | 1014.3 |
| 20260903015021 | 20 | 251 | 0.0 | 6.4 | 0.00 | 0.00 | 0.00 | 42 | 1014.3 |
| 20260903014626 | 20 | 225 | 0.0 | 3.2 | 0.00 | 0.00 | 0.00 | 41 | 1014.2 |
| 20260903014416 | 21 | 225 | 0.0 | 3.2 | 0.00 | 0.00 | 0.00 | 41 | 1014.3 |
| 20260903014026 | 21 | 225 | 0.0 | 1.6 | 0.00 | 0.00 | 0.00 | 42 | 1014.3 |
| 20260903013818 | 21 | 225 | 0.0 | 0.0 | 0.00 | 0.00 | 0.00 | 41 | 1014.3 |
| 20260903013606 | 21 | 225 | 0.0 | 0.0 | 0.00 | 0.00 | 0.00 | 41 | 1014.3 |
| 20260903013355 | 21 | 225 | 0.0 | 1.6 | 0.00 | 0.00 | 0.00 | 41 | 1014.2 |
| 20260903013144 | 21 | 225 | 0.0 | 1.6 | 0.00 | 0.00 | 0.00 | 41 | 1014.2 |
| 20260903012932 | 21 | 225 | 0.0 | 0.0 | 0.00 | 0.00 | 0.00 | 41 | 1014.2 |
| 20260903012723 | 21 | 225 | 0.0 | 0.0 | 0.00 | 0.00 | 0.00 | 40 | 1014.2 |
| 20260903012511 | 21 | 225 | 0.0 | 0.0 | 0.00 | 0.00 | 0.00 | 40 | 1014.2 |
| 20260903012259 | 21 | 225 | 0.0 | 6.4 | 0.00 | 0.00 | 0.00 | 40 | 1014.2 |
| 20260903012056 | 21 | 225 | 0.0 | 6.4 | 0.00 | 0.00 | 0.00 | 40 | 1014.2 |
| 20260903011843 | 21 | 225 | 0.0 | 6.4 | 0.00 | 0.00 | 0.00 | 40 | 1014.2 |
| 20260903011638 | 21 | 228 | 0.0 | 6.4 | 0.00 | 0.00 | 0.00 | 39 | 1014.2 |
| 20260903011431 | 21 | 228 | 0.0 | 6.4 | 0.00 | 0.00 | 0.00 | 39 | 1014.2 |
| 20260903011220 | 21 | 286 | 0.0 | 1.6 | 0.00 | 0.00 | 0.00 | 40 | 1014.2 |
| 20260903011010 | 22 | 287 | 0.0 | 0.0 | 0.00 | 0.00 | 0.00 | 39 | 1014.2 |
| 20260903010808 | 22 | 287 | 0.0 | 8.0 | 0.00 | 0.00 | 0.00 | 39 | 1014.3 |
| 20260903010421 | 22 | 180 | 0.0 | 8.0 | 0.00 | 0.00 | 0.00 | 39 | 1014.3 |
| 20260903005848 | 22 | 324 | 0.0 | 8.0 | 0.00 | 0.00 | 0.00 | 39 | 1014.3 |
| 20260903005647 | 22 | 267 | 0.0 | 0.0 | 0.00 | 0.00 | 0.00 | 39 | 1014.2 |
| 20260903005444 | 22 | 267 | 0.0 | 8.0 | 0.00 | 0.00 | 0.00 | 39 | 1014.2 |
| 20260903005233 | 22 | 267 | 0.0 | 8.0 | 0.00 | 0.00 | 0.00 | 38 | 1014.2 |
| 20260903004514 | 22 | 273 | 0.0 | 9.7 | 0.00 | 0.00 | 0.00 | 38 | 1014.2 |
| 20260903004303 | 22 | 294 | 1.6 | 9.7 | 0.00 | 0.00 | 0.00 | 38 | 1014.3 |
| 20260903004101 | 22 | 350 | 0.0 | 9.7 | 0.00 | 0.00 | 0.00 | 38 | 1014.2 |
| 20260903003847 | 22 | 252 | 1.6 | 9.7 | 0.00 | 0.00 | 0.00 | 37 | 1014.2 |
| 20260903003637 | 22 | 257 | 0.0 | 9.7 | 0.00 | 0.00 | 0.00 | 37 | 1014.2 |
| 20260903003427 | 22 | 225 | 0.0 | 9.7 | 0.00 | 0.00 | 0.00 | 37 | 1014.2 |
| 20260903003220 | 23 | 225 | 0.0 | 9.7 | 0.00 | 0.00 | 0.00 | 37 | 1014.2 |
| 20260903002830 | 23 | 151 | 0.0 | 9.7 | 0.00 | 0.00 | 0.00 | 37 | 1014.3 |
| 20260903002619 | 23 | 150 | 0.0 | 9.7 | 0.00 | 0.00 | 0.00 | 37 | 1014.3 |
| 20260903002417 | 23 | 219 | 0.0 | 8.0 | 0.00 | 0.00 | 0.00 | 37 | 1014.2 |
| 20260903002215 | 23 | 170 | 0.0 | 8.0 | 0.00 | 0.00 | 0.00 | 37 | 1014.2 |
| 20260903002008 | 23 | 222 | 0.0 | 8.0 | 0.00 | 0.00 | 0.00 | 37 | 1014.2 |
| 20260903001614 | 23 | 211 | 0.0 | 9.7 | 0.00 | 0.00 | 0.00 | 37 | 1014.3 |
| 20260903001411 | 23 | 191 | 0.0 | 9.7 | 0.00 | 0.00 | 0.00 | 38 | 1014.3 |
| 20260903001200 | 23 | 191 | 0.0 | 9.7 | 0.00 | 0.00 | 0.00 | 36 | 1014.3 |
| 20260903000952 | 23 | 193 | 0.0 | 9.7 | 0.00 | 0.00 | 0.00 | 38 | 1014.3 |
| 20260903000741 | 23 | 202 | 0.0 | 9.7 | 0.00 | 0.00 | 0.00 | 37 | 1014.3 |
| 20260903000538 | 23 | 216 | 0.0 | 9.7 | 0.00 | 0.00 | 0.00 | 36 | 1014.3 |
| 20260903000149 | 23 | 217 | 1.6 | 9.7 | 0.00 | 0.00 | 0.00 | 36 | 1014.4 |
| 20260902235936 | 23 | 212 | 0.0 | 9.7 | 0.00 | 0.00 | 0.00 | 37 | 1014.5 |
| 20260902235732 | 23 | 224 | 0.0 | 8.0 | 0.00 | 0.00 | 0.00 | 36 | 1014.5 |
| 20260902235336 | 23 | 266 | 0.0 | 6.4 | 0.00 | 0.00 | 0.00 | 37 | 1014.5 |
| 20260902235123 | 23 | 269 | 0.0 | 3.2 | 0.00 | 0.00 | 0.00 | 36 | 1014.4 |
| 20260902234917 | 23 | 269 | 0.0 | 0.0 | 0.00 | 0.00 | 0.00 | 37 | 1014.5 |
| 20260902234712 | 23 | 269 | 0.0 | 6.4 | 0.00 | 0.00 | 0.00 | 36 | 1014.5 |
| 20260902234503 | 23 | 265 | 0.0 | 6.4 | 0.00 | 0.00 | 0.00 | 35 | 1014.4 |
| 20260902234256 | 23 | 265 | 0.0 | 6.4 | 0.00 | 0.00 | 0.00 | 35 | 1014.5 |
| 20260902233903 | 23 | 180 | 0.0 | 4.8 | 0.00 | 0.00 | 0.00 | 36 | 1014.4 |
| 20260902233515 | 24 | 207 | 0.0 | 3.2 | 0.00 | 0.00 | 0.00 | 36 | 1014.4 |
| 20260902233126 | 24 | 207 | 0.0 | 9.7 | 0.00 | 0.00 | 0.00 | 36 | 1014.5 |
| 20260902232924 | 24 | 215 | 0.0 | 9.7 | 0.00 | 0.00 | 0.00 | 35 | 1014.6 |
| 20260902232719 | 24 | 240 | 0.0 | 9.7 | 0.00 | 0.00 | 0.00 | 35 | 1014.6 |
| 20260902232331 | 23 | 237 | 1.6 | 9.7 | 0.00 | 0.00 | 0.00 | 35 | 1014.6 |
| 20260902231939 | 23 | 217 | 1.6 | 9.7 | 0.00 | 0.00 | 0.00 | 36 | 1014.5 |
| 20260902231729 | 23 | 237 | 1.6 | 9.7 | 0.00 | 0.00 | 0.00 | 34 | 1014.6 |
| 20260902231518 | 24 | 171 | 1.6 | 9.7 | 0.00 | 0.00 | 0.00 | 35 | 1014.5 |
| 20260902231316 | 24 | 209 | 1.6 | 9.7 | 0.00 | 0.00 | 0.00 | 34 | 1014.6 |
| 20260902231109 | 24 | 211 | 1.6 | 9.7 | 0.00 | 0.00 | 0.00 | 34 | 1014.6 |
| 20260902230856 | 24 | 209 | 1.6 | 9.7 | 0.00 | 0.00 | 0.00 | 35 | 1014.6 |
| 20260902230644 | 24 | 205 | 1.6 | 9.7 | 0.00 | 0.00 | 0.00 | 33 | 1014.6 |
| 20260902230441 | 24 | 203 | 1.6 | 9.7 | 0.00 | 0.00 | 0.00 | 36 | 1014.6 |
| 20260902230239 | 24 | 156 | 0.0 | 8.0 | 0.00 | 0.00 | 0.00 | 36 | 1014.7 |
| 20260902230034 | 24 | 209 | 0.0 | 4.8 | 0.00 | 0.00 | 0.00 | 35 | 1014.6 |
| 20260902225644 | 24 | 208 | 0.0 | 4.8 | 0.00 | 0.00 | 0.00 | 35 | 1014.6 |
| 20260902225436 | 23 | 336 | 0.0 | 4.8 | 0.00 | 0.00 | 0.00 | 36 | 1014.6 |
| 20260902225232 | 23 | 87 | 0.0 | 4.8 | 0.00 | 0.00 | 0.00 | 36 | 1014.6 |
| 20260902225027 | 23 | 199 | 0.0 | 4.8 | 0.00 | 0.00 | 0.00 | 38 | 1014.7 |
| 20260902224637 | 23 | 198 | 1.6 | 6.4 | 0.00 | 0.00 | 0.00 | 37 | 1014.7 |
| 20260902224432 | 23 | 237 | 0.0 | 6.4 | 0.00 | 0.00 | 0.00 | 36 | 1014.7 |
| 20260902224225 | 23 | 237 | 0.0 | 6.4 | 0.00 | 0.00 | 0.00 | 36 | 1014.8 |
| 20260902223837 | 23 | 263 | 0.0 | 11.3 | 0.00 | 0.00 | 0.00 | 36 | 1014.8 |
| 20260902223633 | 23 | 213 | 1.6 | 11.3 | 0.00 | 0.00 | 0.00 | 37 | 1014.8 |
| 20260902223243 | 23 | 271 | 1.6 | 11.3 | 0.00 | 0.00 | 0.00 | 38 | 1014.8 |
| 20260902223034 | 23 | 275 | 1.6 | 11.3 | 0.00 | 0.00 | 0.00 | 35 | 1014.9 |
| 20260902222828 | 23 | 275 | 1.6 | 11.3 | 0.00 | 0.00 | 0.00 | 35 | 1014.9 |
| 20260902222617 | 23 | 304 | 1.6 | 11.3 | 0.00 | 0.00 | 0.00 | 36 | 1014.9 |
| 20260902222226 | 23 | 279 | 1.6 | 11.3 | 0.00 | 0.00 | 0.00 | 38 | 1014.9 |
| 20260902222014 | 23 | 266 | 1.6 | 11.3 | 0.00 | 0.00 | 0.00 | 37 | 1015.0 |
| 20260902221802 | 23 | 272 | 1.6 | 9.7 | 0.00 | 0.00 | 0.00 | 43 | 1014.9 |
| 20260902221600 | 23 | 273 | 1.6 | 9.7 | 0.00 | 0.00 | 0.00 | 37 | 1015.0 |
| 20260902221207 | 23 | 204 | 1.6 | 9.7 | 0.00 | 0.00 | 0.00 | 41 | 1015.0 |
| 20260902220818 | 23 | 158 | 1.6 | 6.4 | 0.00 | 0.00 | 0.00 | 42 | 1014.9 |
| 20260902220614 | 23 | 196 | 0.0 | 6.4 | 0.00 | 0.00 | 0.00 | 42 | 1014.9 |
| 20260902220226 | 22 | 172 | 1.6 | 6.4 | 0.00 | 0.00 | 0.00 | 44 | 1015.0 |
| 20260902220020 | 22 | 186 | 1.6 | 1.6 | 0.00 | 0.00 | 0.00 | 39 | 1015.1 |
| 20260902215812 | 22 | 185 | 1.6 | 9.7 | 0.00 | 0.00 | 0.00 | 41 | 1015.1 |
| 20260902215603 | 22 | 221 | 1.6 | 9.7 | 0.00 | 0.00 | 0.00 | 43 | 1015.1 |
| 20260902215359 | 22 | 242 | 1.6 | 9.7 | 0.00 | 0.00 | 0.00 | 43 | 1015.1 |
| 20260902215149 | 22 | 174 | 1.6 | 9.7 | 0.00 | 0.00 | 0.00 | 44 | 1015.3 |
| 20260902214939 | 22 | 148 | 0.0 | 9.7 | 0.00 | 0.00 | 0.00 | 44 | 1015.2 |
| 20260902214729 | 22 | 148 | 0.0 | 9.7 | 0.00 | 0.00 | 0.00 | 45 | 1015.3 |
| 20260902214520 | 22 | 149 | 1.6 | 9.7 | 0.00 | 0.00 | 0.00 | 43 | 1015.4 |
| 20260902214315 | 22 | 163 | 1.6 | 9.7 | 0.00 | 0.00 | 0.00 | 44 | 1015.4 |
| 20260902213926 | 22 | 205 | 1.6 | 9.7 | 0.00 | 0.00 | 0.00 | 42 | 1015.4 |
| 20260902213720 | 22 | 203 | 1.6 | 9.7 | 0.00 | 0.00 | 0.00 | 40 | 1015.4 |
| 20260902213508 | 23 | 207 | 1.6 | 9.7 | 0.00 | 0.00 | 0.00 | 38 | 1015.4 |
| 20260902213256 | 23 | 213 | 1.6 | 9.7 | 0.00 | 0.00 | 0.00 | 43 | 1015.4 |
| 20260902213047 | 23 | 290 | 1.6 | 9.7 | 0.00 | 0.00 | 0.00 | 38 | 1015.5 |
| 20260902212835 | 23 | 290 | 1.6 | 12.9 | 0.00 | 0.00 | 0.00 | 43 | 1015.4 |
| 20260902212627 | 23 | 295 | 1.6 | 12.9 | 0.00 | 0.00 | 0.00 | 38 | 1015.5 |
| 20260902212415 | 23 | 273 | 0.0 | 12.9 | 0.00 | 0.00 | 0.00 | 38 | 1015.4 |
| 20260902212019 | 23 | 244 | 0.0 | 12.9 | 0.00 | 0.00 | 0.00 | 39 | 1015.5 |
| 20260902211815 | 23 | 242 | 1.6 | 12.9 | 0.00 | 0.00 | 0.00 | 38 | 1015.5 |
| 20260902211424 | 23 | 241 | 3.2 | 12.9 | 0.00 | 0.00 | 0.00 | 37 | 1015.5 |
| 20260902211214 | 23 | 311 | 3.2 | 12.9 | 0.00 | 0.00 | 0.00 | 37 | 1015.6 |
| 20260902210817 | 23 | 248 | 1.6 | 9.7 | 0.00 | 0.00 | 0.00 | 39 | 1015.7 |
| 20260902210608 | 23 | 165 | 0.0 | 8.0 | 0.00 | 0.00 | 0.00 | 40 | 1015.7 |
| 20260902210402 | 23 | 238 | 1.6 | 8.0 | 0.00 | 0.00 | 0.00 | 39 | 1015.6 |
| 20260902210151 | 23 | 220 | 1.6 | 8.0 | 0.00 | 0.00 | 0.00 | 40 | 1015.6 |
| 20260902205940 | 23 | 196 | 0.0 | 8.0 | 0.00 | 0.00 | 0.00 | 39 | 1015.7 |
| 20260902205737 | 23 | 151 | 0.0 | 8.0 | 0.00 | 0.00 | 0.00 | 39 | 1015.7 |
| 20260902205527 | 23 | 152 | 1.6 | 11.3 | 0.00 | 0.00 | 0.00 | 40 | 1015.6 |
| 20260902205316 | 23 | 230 | 1.6 | 11.3 | 0.00 | 0.00 | 0.00 | 40 | 1015.6 |
| 20260902205105 | 23 | 175 | 1.6 | 11.3 | 0.00 | 0.00 | 0.00 | 39 | 1015.6 |
| 20260902204901 | 23 | 157 | 1.6 | 11.3 | 0.00 | 0.00 | 0.00 | 39 | 1015.6 |
| 20260902204659 | 23 | 193 | 1.6 | 11.3 | 0.00 | 0.00 | 0.00 | 39 | 1015.6 |
| 20260902204449 | 23 | 229 | 1.6 | 11.3 | 0.00 | 0.00 | 0.00 | 40 | 1015.7 |
| 20260902204238 | 22 | 249 | 1.6 | 11.3 | 0.00 | 0.00 | 0.00 | 39 | 1015.6 |
| 20260902204031 | 22 | 198 | 1.6 | 11.3 | 0.00 | 0.00 | 0.00 | 40 | 1015.6 |
| 20260902203828 | 22 | 57 | 1.6 | 11.3 | 0.00 | 0.00 | 0.00 | 39 | 1015.6 |
| 20260902203255 | 22 | 265 | 1.6 | 9.7 | 0.00 | 0.00 | 0.00 | 40 | 1015.5 |
| 20260902203045 | 22 | 227 | 1.6 | 9.7 | 0.00 | 0.00 | 0.00 | 40 | 1015.6 |
| 20260902202651 | 22 | 195 | 0.0 | 8.0 | 0.00 | 0.00 | 0.00 | 42 | 1015.6 |
| 20260902202437 | 22 | 256 | 1.6 | 8.0 | 0.00 | 0.00 | 0.00 | 41 | 1015.6 |
| 20260902202231 | 22 | 259 | 1.6 | 8.0 | 0.00 | 0.00 | 0.00 | 41 | 1015.6 |
| 20260902202023 | 22 | 285 | 1.6 | 8.0 | 0.00 | 0.00 | 0.00 | 41 | 1015.6 |
| 20260902201629 | 22 | 318 | 3.2 | 8.0 | 0.00 | 0.00 | 0.00 | 41 | 1015.6 |
| 20260902201425 | 22 | 288 | 3.2 | 8.0 | 0.00 | 0.00 | 0.00 | 42 | 1015.7 |
| 20260902201216 | 22 | 309 | 3.2 | 8.0 | 0.00 | 0.00 | 0.00 | 44 | 1015.6 |
| 20260902201010 | 22 | 71 | 1.6 | 8.0 | 0.00 | 0.00 | 0.00 | 41 | 1015.7 |
| 20260902200804 | 22 | 164 | 1.6 | 6.4 | 0.00 | 0.00 | 0.00 | 42 | 1015.7 |
| 20260902200600 | 22 | 163 | 1.6 | 8.0 | 0.00 | 0.00 | 0.00 | 43 | 1015.6 |
| 20260902200346 | 22 | 220 | 1.6 | 8.0 | 0.00 | 0.00 | 0.00 | 43 | 1015.7 |
| 20260902200141 | 22 | 169 | 1.6 | 8.0 | 0.00 | 0.00 | 0.00 | 42 | 1015.6 |
| 20260902195746 | 22 | 275 | 1.6 | 8.0 | 0.00 | 0.00 | 0.00 | 41 | 1015.7 |
| 20260902195533 | 22 | 275 | 1.6 | 9.7 | 0.00 | 0.00 | 0.00 | 42 | 1015.7 |
| 20260902195321 | 22 | 286 | 1.6 | 9.7 | 0.00 | 0.00 | 0.00 | 42 | 1015.7 |
| 20260902195111 | 21 | 286 | 1.6 | 9.7 | 0.00 | 0.00 | 0.00 | 42 | 1015.7 |
| 20260902194904 | 21 | 283 | 1.6 | 9.7 | 0.00 | 0.00 | 0.00 | 42 | 1015.9 |
| 20260902194509 | 21 | 271 | 1.6 | 11.3 | 0.00 | 0.00 | 0.00 | 43 | 1015.8 |
| 20260902194306 | 21 | 305 | 1.6 | 11.3 | 0.00 | 0.00 | 0.00 | 43 | 1015.8 |
| 20260902194100 | 21 | 198 | 1.6 | 11.3 | 0.00 | 0.00 | 0.00 | 43 | 1015.8 |
| 20260902193848 | 21 | 229 | 1.6 | 11.3 | 0.00 | 0.00 | 0.00 | 43 | 1015.8 |
| 20260902193637 | 21 | 250 | 1.6 | 11.3 | 0.00 | 0.00 | 0.00 | 44 | 1015.7 |
| 20260902193248 | 21 | 293 | 1.6 | 11.3 | 0.00 | 0.00 | 0.00 | 42 | 1015.8 |
| 20260902193037 | 21 | 277 | 3.2 | 11.3 | 0.00 | 0.00 | 0.00 | 43 | 1015.8 |
| 20260902192828 | 21 | 217 | 1.6 | 11.3 | 0.00 | 0.00 | 0.00 | 43 | 1015.8 |
| 20260902192436 | 21 | 167 | 1.6 | 9.7 | 0.00 | 0.00 | 0.00 | 44 | 1015.8 |
| 20260902192225 | 21 | 217 | 1.6 | 9.7 | 0.00 | 0.00 | 0.00 | 43 | 1015.8 |
| 20260902192016 | 21 | 184 | 1.6 | 9.7 | 0.00 | 0.00 | 0.00 | 43 | 1015.8 |
| 20260902191808 | 21 | 203 | 1.6 | 9.7 | 0.00 | 0.00 | 0.00 | 43 | 1015.8 |
| 20260902191558 | 21 | 220 | 1.6 | 9.7 | 0.00 | 0.00 | 0.00 | 43 | 1015.9 |
| 20260902191347 | 21 | 317 | 1.6 | 9.7 | 0.00 | 0.00 | 0.00 | 42 | 1015.9 |
| 20260902191141 | 21 | 285 | 1.6 | 9.7 | 0.00 | 0.00 | 0.00 | 42 | 1015.9 |
| 20260902190928 | 21 | 47 | 1.6 | 8.0 | 0.00 | 0.00 | 0.00 | 41 | 1015.8 |
| 20260902190720 | 21 | 284 | 1.6 | 8.0 | 0.00 | 0.00 | 0.00 | 42 | 1015.8 |
| 20260902190515 | 21 | 294 | 1.6 | 8.0 | 0.00 | 0.00 | 0.00 | 43 | 1015.9 |
| 20260902190304 | 21 | 277 | 1.6 | 8.0 | 0.00 | 0.00 | 0.00 | 41 | 1015.8 |
| 20260902190054 | 21 | 286 | 0.0 | 8.0 | 0.00 | 0.00 | 0.00 | 42 | 1015.8 |
| 20260902185849 | 21 | 287 | 1.6 | 8.0 | 0.00 | 0.00 | 0.00 | 43 | 1015.8 |
| 20260902185640 | 21 | 288 | 1.6 | 8.0 | 0.00 | 0.00 | 0.00 | 44 | 1015.8 |
| 20260902185429 | 21 | 288 | 1.6 | 8.0 | 0.00 | 0.00 | 0.00 | 43 | 1015.8 |
| 20260902185221 | 21 | 222 | 0.0 | 8.0 | 0.00 | 0.00 | 0.00 | 44 | 1015.8 |
| 20260902185010 | 20 | 222 | 0.0 | 8.0 | 0.00 | 0.00 | 0.00 | 44 | 1015.9 |
| 20260902184800 | 20 | 198 | 0.0 | 3.2 | 0.00 | 0.00 | 0.00 | 45 | 1015.8 |
| 20260902184558 | 20 | 198 | 0.0 | 0.0 | 0.00 | 0.00 | 0.00 | 44 | 1015.9 |